[[{"header":{"parameterUnit":"m.s-1","parameterCategory":1,"la1":30.2991,"la2":30.254,"lo1":-89.0895,"lo2":-89.0444,"dy":0.0017,"dx":0.0017,"nx":28,"ny":28,"refTime":"2024-08-21T09:00:00:Z","depth":0,"parameterNumber":2,"parameterNumberName":"U-component_of_WINDS"},"data":[0,0,0,0,0,0,0,0,0,0,0,0,0,0,0,0,0,0,0,0,0,0,0,0,0,0,0,0,0,0,0,0,0,0,0,0,0,0,0,0,0,0,0,0,0,0,0,0,0,0,0,0,0,0,0,0,0,0,-2.1084,-2.1084,0,-2.1041,-2.1041,-2.104,-2.1012,-2.1011,-2.1011,-2.1011,-2.0964,-2.0963,-2.0962,0,0,0,0,0,0,0,0,0,0,0,0,0,-2.1139,-2.1138,-2.1084,-2.1084,-2.1083,-2.1041,-2.1041,-2.104,-2.1012,-2.1011,-2.1011,-2.1011,-2.0964,-2.0963,-2.0962,0,0,0,0,0,0,0,0,0,0,0,0,0,-2.1107,-2.1138,-2.1084,-2.1064,-2.1062,-2.1042,-2.1041,-2.104,-2.1012,-2.1011,-2.1011,-2.1011,-2.0965,-2.0963,-2.0962,-2.0957,0,0,-2.0957,-2.0956,0,0,0,0,0,0,0,0,-2.1109,-2.1105,-2.1067,-2.1065,-2.1063,-2.1032,-2.1043,-2.1012,-2.1012,-2.1031,-2.1011,-2.1011,-2.0987,-2.0983,-2.0976,-2.0955,-2.0953,-2.0957,-2.0956,-2.0955,-2.0954,0,0,0,0,0,0,0,-2.1111,-2.1107,-2.1067,-2.1067,-2.1064,-2.1056,-2.1051,-2.1037,-2.1011,-2.1029,-2.1027,-2.1022,-2.0985,-2.0977,-2.0974,-2.0952,-2.0957,-2.0955,-2.0954,-2.0954,-2.0926,-2.0926,0,0,0,0,0,0,-2.1117,-2.1109,-2.1068,-2.1066,-2.1086,-2.1055,-2.105,-2.1042,-2.1011,-2.1006,-2.1023,-2.1021,-2.098,-2.0976,-2.0973,-2.0965,-2.0955,-2.0953,-2.0953,-2.0926,-2.0926,-2.0926,0,0,0,0,0,0,-2.1118,-2.1114,-2.107,-2.1087,-2.1081,-2.1055,-2.1046,-2.1041,-2.1033,-2.1006,-2.1001,-2.1019,-2.098,-2.0975,-2.0961,-2.0963,-2.0953,-2.0951,-2.0925,-2.0926,-2.0926,-2.095,0,0,0,0,0,0,-2.112,-2.1114,-2.1113,-2.1087,-2.108,-2.1061,-2.1046,-2.104,-2.1031,-2.1029,-2.1002,-2.0997,-2.0979,-2.0964,-2.096,-2.0961,-2.095,-2.0925,-2.0925,-2.0926,-2.0949,-2.0951,-2.0953,0,0,0,0,0,-2.1122,-2.1121,-2.1113,-2.1108,-2.1078,-2.1061,-2.1057,-2.1037,-2.1031,-2.1029,-2.1012,-2.0998,-2.0964,-2.0963,-2.0958,-2.0958,-2.0925,-2.0925,-2.0926,-2.0948,-2.0951,-2.0953,0,0,0,0,0,0,-2.1147,-2.1117,-2.1108,-2.1099,-2.1083,-2.1056,-2.1053,-2.1041,-2.1025,-2.1024,-2.0999,-2.0993,-2.0982,-2.0969,-2.0969,-2.0952,-2.0943,-2.0942,-2.0961,-2.0964,-2.0966,-2.0969,-2.0949,0,0,0,0,0,-2.1151,-2.1141,-2.1115,-2.111,-2.1102,-2.1079,-2.1071,-2.1058,-2.1039,-2.1032,-2.1014,-2.0996,-2.0981,-2.0972,-2.0957,-2.0947,-2.0941,-2.0945,-2.0947,-2.0949,-2.0948,-2.0942,-2.0943,-2.0928,-2.0928,-2.0928,0,0,-2.116,-2.1143,-2.1137,-2.1114,-2.11,-2.1089,-2.1073,-2.1062,-2.1053,-2.103,-2.1016,-2.1002,-2.0981,-2.0969,-2.0963,-2.0958,-2.0952,-2.095,-2.0951,-2.095,-2.0943,-2.0944,-2.0946,-2.0928,-2.0928,-2.0928,0,0,-2.117,-2.1157,-2.115,-2.1137,-2.1116,-2.1101,-2.11,-2.1075,-2.1065,-2.1051,-2.1033,-2.1022,-2.0997,-2.0983,-2.0972,-2.0977,-2.0964,-2.0973,-2.0983,-2.0977,-2.0979,-2.098,-2.0981,-2.0982,-2.0973,-2.0973,-2.0973,0,-2.1184,-2.1167,-2.1148,-2.1138,-2.1128,-2.1108,-2.11,-2.1088,-2.1063,-2.1056,-2.1051,-2.1019,-2.1003,-2.0988,-2.0989,-2.0982,-2.0978,-2.0976,-2.098,-2.0981,-2.0981,-2.0982,-2.0983,-2.0974,-2.0974,-2.0974,-2.0974,0,-2.1184,-2.1173,-2.117,-2.1148,-2.1137,-2.1129,-2.1108,-2.1099,-2.1087,-2.1072,-2.1058,-2.1038,-2.1019,-2.1015,-2.1002,-2.0997,-2.0994,-2.0985,-2.0975,-2.0985,-2.0985,-2.0985,-2.0976,-2.0976,-2.0975,-2.0975,0,0,-2.1208,-2.1176,-2.1175,-2.1164,-2.114,-2.1131,-2.1121,-2.1103,-2.1096,-2.108,-2.107,-2.105,-2.1042,-2.1029,-2.1015,-2.101,-2.1015,-2.1001,-2.1,-2.1003,-2.1008,-2.1014,-2.1015,-2.1006,-2.1006,-2.1006,-2.1009,0,-2.1214,-2.1196,-2.1179,-2.1167,-2.1156,-2.1137,-2.1129,-2.1113,-2.1099,-2.1086,-2.1071,-2.1057,-2.1046,-2.1039,-2.1033,-2.1015,-2.1015,-2.1015,-2.0996,-2.0995,-2.1001,-2.1015,-2.1022,-2.1026,-2.1009,-2.1009,-2.1009,0,-2.1218,-2.1204,-2.1192,-2.1169,-2.1163,-2.1156,-2.1138,-2.1127,-2.1108,-2.1099,-2.1086,-2.1071,-2.1058,-2.105,-2.1033,-2.1033,-2.1024,-2.1015,-2.1014,-2.1011,-2.1002,-2.1011,-2.1027,-2.1027,-2.1009,-2.1009,-2.1009,0,-2.1236,-2.1214,-2.1203,-2.1195,-2.1168,-2.1163,-2.1152,-2.1133,-2.1123,-2.1107,-2.11,-2.1083,-2.1073,-2.106,-2.104,-2.1036,-2.1024,-2.1015,-2.1015,-2.1015,-2.1012,-2.1013,-2.1026,-2.1008,-2.1008,-2.1008,-2.1008,0,-2.1244,-2.1237,-2.1211,-2.1204,-2.1195,-2.1176,-2.1167,-2.1154,-2.1137,-2.1127,-2.1109,-2.11,-2.1075,-2.1062,-2.1047,-2.1034,-2.103,-2.1021,-2.1017,-2.1022,-2.1023,-2.1015,-2.1014,-2.1008,-2.1008,-2.1008,-2.1008,0,-2.1262,-2.1244,-2.1231,-2.1208,-2.1201,-2.1196,-2.1175,-2.1167,-2.1153,-2.114,-2.1136,-2.1113,-2.1097,-2.1077,-2.1054,-2.1044,-2.1033,-2.1027,-2.1039,-2.1037,-2.1038,-2.1038,-2.1045,-2.1045,-2.1029,-2.1029,-2.1029,0,-2.1268,-2.1262,-2.1238,-2.1231,-2.122,-2.1208,-2.1198,-2.1178,-2.1169,-2.1147,-2.1142,-2.1125,-2.111,-2.1086,-2.1066,-2.1049,-2.1042,-2.1046,-2.1039,-2.1044,-2.1041,-2.1041,-2.104,-2.1047,-2.1048,-2.1048,-2.1048,0,-2.128,-2.1272,-2.1259,-2.1243,-2.1233,-2.1219,-2.1204,-2.1199,-2.1176,-2.1166,-2.115,-2.1139,-2.1116,-2.11,-2.108,-2.1067,-2.1053,-2.1051,-2.1049,-2.1054,-2.1062,-2.1057,-2.1043,-2.105,-2.105,-2.105,-2.105,-2.105,-2.1291,-2.1285,-2.1268,-2.1254,-2.1241,-2.1228,-2.122,-2.1205,-2.1192,-2.1173,-2.1162,-2.1146,-2.1127,-2.1099,-2.1087,-2.1074,-2.1068,-2.1067,-2.1066,-2.1066,-2.1068,-2.1065,-2.107,-2.107,-2.107,-2.107,-2.107,0,-2.1302,-2.129,-2.1278,-2.1258,-2.1248,-2.1237,-2.1221,-2.1212,-2.1199,-2.1183,-2.1169,-2.1151,-2.1135,-2.1114,-2.1096,-2.109,-2.1083,-2.1085,-2.1085,-2.1082,-2.1074,-2.1076,-2.1091,-2.1091,-2.1091,-2.1091,-2.1091,-2.1091,-2.1306,-2.1295,-2.1285,-2.1267,-2.1255,-2.1241,-2.1232,-2.1219,-2.1206,-2.1187,-2.1174,-2.1161,-2.1143,-2.1124,-2.1108,-2.1102,-2.1096,-2.11,-2.1093,-2.1085,-2.1083,-2.1081,-2.1083,-2.1099,-2.1099,-2.1102,-2.1102,-2.1102]},{"header":{"parameterUnit":"m.s-1","parameterCategory":1,"la1":30.2991,"la2":30.254,"lo1":-89.0895,"lo2":-89.0444,"dy":0.0017,"dx":0.0017,"nx":28,"ny":28,"refTime":"2024-08-21T09:00:00:Z","depth":0,"parameterNumber":3,"parameterNumberName":"V-component_of_WINDS"},"data":[0,0,0,0,0,0,0,0,0,0,0,0,0,0,0,0,0,0,0,0,0,0,0,0,0,0,0,0,0,0,0,0,0,0,0,0,0,0,0,0,0,0,0,0,0,0,0,0,0,0,0,0,0,0,0,0,0,0,1.002,1.0018,0,0.9854,0.9852,0.985,0.9751,0.975,0.975,0.9749,0.9575,0.9571,0.9567,0,0,0,0,0,0,0,0,0,0,0,0,0,1.0247,1.0244,1.002,1.0018,1.0016,0.9854,0.9852,0.9849,0.9751,0.975,0.975,0.9749,0.9577,0.9572,0.9567,0,0,0,0,0,0,0,0,0,0,0,0,0,1.0122,1.0243,1.002,0.9947,0.9939,0.9854,0.9852,0.9849,0.9751,0.975,0.975,0.9749,0.9579,0.9572,0.9566,0.954,0,0,0.9547,0.9544,0,0,0,0,0,0,0,0,1.0129,1.0113,0.996,0.9952,0.9943,0.9822,0.9868,0.9745,0.9751,0.9822,0.9749,0.9749,0.9658,0.9645,0.9615,0.9532,0.9525,0.9546,0.9542,0.954,0.9538,0,0,0,0,0,0,0,1.0138,1.012,0.9954,0.9958,0.9947,0.9921,0.9903,0.9844,0.9746,0.9816,0.9808,0.979,0.9653,0.9622,0.961,0.9522,0.9546,0.9541,0.9537,0.9534,0.9407,0.9407,0,0,0,0,0,0,1.0159,1.0128,0.9959,0.9949,1.0036,0.9918,0.9897,0.9862,0.9746,0.9728,0.9791,0.9786,0.9633,0.9618,0.9604,0.9564,0.954,0.9534,0.953,0.9406,0.9407,0.9407,0,0,0,0,0,0,1.0164,1.0145,0.9966,1.0036,1.0012,0.9915,0.9876,0.9859,0.9827,0.9727,0.9709,0.9777,0.9632,0.9613,0.9556,0.9556,0.9531,0.9525,0.9406,0.9407,0.9407,0.9485,0,0,0,0,0,0,1.0171,1.0147,1.0137,1.0037,1.0008,0.9923,0.9876,0.9856,0.9817,0.9809,0.9709,0.9692,0.963,0.9566,0.955,0.9547,0.952,0.9405,0.9406,0.9407,0.9482,0.9488,0.9493,0,0,0,0,0,1.0179,1.0165,1.0137,1.0118,0.9994,0.9923,0.9907,0.9836,0.9817,0.9806,0.9741,0.9695,0.956,0.9562,0.9542,0.9537,0.9405,0.9406,0.9407,0.9479,0.9487,0.9493,0,0,0,0,0,0,1.0267,1.0151,1.0118,1.0072,1.0008,0.9907,0.989,0.9847,0.9786,0.9781,0.9695,0.9673,0.9625,0.9576,0.958,0.9505,0.9477,0.9474,0.9539,0.9545,0.9551,0.9562,0.9515,0,0,0,0,0,1.0282,1.0235,1.0135,1.0104,1.0074,0.9988,0.9954,0.9905,0.9835,0.9807,0.9739,0.9672,0.9613,0.9577,0.9518,0.9475,0.945,0.9462,0.9468,0.9473,0.9471,0.9442,0.9445,0.941,0.941,0.941,0,0,1.031,1.024,1.0216,1.012,1.0064,1.0016,0.9965,0.9917,0.988,0.9799,0.9742,0.969,0.9609,0.9559,0.9533,0.9516,0.9476,0.9475,0.948,0.9474,0.9443,0.9447,0.945,0.9411,0.9411,0.9411,0,0,1.0336,1.028,1.0246,1.0192,1.011,1.0053,1.0045,0.995,0.9912,0.9854,0.9792,0.9746,0.9649,0.9593,0.9552,0.9557,0.9511,0.954,0.9569,0.9543,0.9545,0.9547,0.9547,0.9548,0.9539,0.9539,0.9539,0,1.038,1.0307,1.0234,1.0189,1.0147,1.0074,1.0038,0.9989,0.9892,0.9864,0.9847,0.9722,0.9663,0.9597,0.9599,0.9569,0.9555,0.955,0.9551,0.9552,0.9553,0.9551,0.9552,0.9543,0.9543,0.9542,0.9542,0,1.0365,1.0314,1.0297,1.0205,1.0162,1.0122,1.0042,1.0007,0.9962,0.9907,0.9847,0.9773,0.9697,0.9679,0.9634,0.9606,0.9598,0.9568,0.9537,0.9561,0.9558,0.9557,0.9549,0.9547,0.9546,0.9545,0,0,1.0439,1.0309,1.0303,1.026,1.0164,1.0123,1.0079,1.0006,0.9976,0.9912,0.9871,0.979,0.9761,0.9715,0.9664,0.9641,0.9646,0.9612,0.9609,0.9619,0.9608,0.963,0.9631,0.9617,0.9617,0.9616,0.9614,0,1.0449,1.0367,1.0301,1.0243,1.0194,1.0125,1.0086,1.0022,0.9969,0.9919,0.986,0.9803,0.977,0.9742,0.9716,0.9651,0.9643,0.9651,0.9576,0.9574,0.9595,0.9629,0.9652,0.9654,0.9613,0.9613,0.9612,0,1.0449,1.0388,1.0326,1.0234,1.0211,1.0177,1.0104,1.0058,0.9984,0.9947,0.9896,0.9842,0.9791,0.9768,0.9695,0.9702,0.9667,0.9631,0.9629,0.9617,0.9593,0.9616,0.9653,0.9652,0.961,0.961,0.9611,0,1.0506,1.0409,1.0358,1.0324,1.0216,1.0194,1.0148,1.0073,1.0033,0.9969,0.9941,0.9873,0.9834,0.9781,0.971,0.9701,0.9644,0.9615,0.9609,0.9611,0.9598,0.9599,0.9628,0.9581,0.9581,0.9581,0.9581,0,1.0523,1.0487,1.0382,1.0351,1.0308,1.0232,1.0191,1.0139,1.0073,1.0029,0.9965,0.9925,0.9835,0.9784,0.9728,0.9674,0.9658,0.9625,0.961,0.9629,0.9633,0.9603,0.96,0.9581,0.9581,0.9581,0.9581,0,1.0578,1.0507,1.0447,1.0351,1.0325,1.0298,1.0214,1.018,1.0124,1.0069,1.0052,0.9964,0.99,0.9825,0.9736,0.9699,0.9649,0.9629,0.9674,0.9665,0.9663,0.9663,0.967,0.9666,0.9626,0.9627,0.9627,0,1.0592,1.0562,1.0463,1.0429,1.0385,1.0332,1.0291,1.0215,1.0175,1.0088,1.0064,0.9996,0.9937,0.9838,0.9765,0.9696,0.9672,0.9679,0.9661,0.9681,0.9669,0.967,0.9666,0.9684,0.9684,0.9685,0.9686,0,1.0622,1.0589,1.0533,1.0465,1.0418,1.036,1.0299,1.0275,1.0187,1.0145,1.0079,1.0034,0.9944,0.9875,0.9798,0.9749,0.9701,0.9693,0.9687,0.9705,0.9731,0.9714,0.9685,0.9692,0.9691,0.9691,0.969,0.969,1.0655,1.0625,1.055,1.049,1.0436,1.0381,1.0344,1.0284,1.0229,1.015,1.0109,1.0044,0.9969,0.986,0.9812,0.9759,0.9743,0.9736,0.9733,0.9732,0.9737,0.9743,0.9745,0.9745,0.9745,0.9744,0.9744,0,1.068,1.0629,1.0574,1.0492,1.0444,1.0406,1.0337,1.0299,1.0243,1.0178,1.0121,1.0045,0.9979,0.9902,0.983,0.9802,0.9779,0.9786,0.9785,0.9774,0.9756,0.9767,0.9806,0.9806,0.9806,0.9806,0.9806,0.9806,1.0687,1.0634,1.0592,1.0511,1.0459,1.0396,1.0359,1.0307,1.0255,1.0173,1.0118,1.0069,0.9998,0.9921,0.9858,0.9837,0.9812,0.9825,0.9797,0.9781,0.9776,0.9771,0.978,0.9821,0.9821,0.9819,0.9819,0.9819]}]]